�������l�o���
Date,Time,MP-1(��Sv/h),MP-2(��Sv/h),MP-3(��Sv/h),MP-4(��Sv/h),MP-5(��Sv/h),MP-6(��Sv/h),MP-7(��Sv/h),MP-8(��Sv/h),����,����(m/s),���J
2018/11/01,00:00,0.786,1.191,0.835,1.489,1.082,0.463,0.809,0.766,��,3.2,��
2018/11/01,00:10,0.786,1.194,0.836,1.492,1.082,0.462,0.808,0.766,��,3.5,��
2018/11/01,00:20,0.786,1.190,0.834,1.491,1.081,0.463,0.810,0.764,��,4.3,��
2018/11/01,00:30,0.786,1.191,0.835,1.490,1.082,0.461,0.809,0.766,��,4.4,��
2018/11/01,00:40,0.787,1.192,0.836,1.491,1.084,0.461,0.809,0.765,���k��,3.8,��
2018/11/01,00:50,0.786,1.192,0.834,1.492,1.081,0.461,0.810,0.766,���k��,4.0,��
2018/11/01,01:00,0.784,1.191,0.836,1.492,1.082,0.462,0.809,0.765,���k��,4.2,��
2018/11/01,01:10,0.787,1.192,0.836,1.491,1.083,0.461,0.808,0.766,���k��,5.0,��
2018/11/01,01:20,0.785,1.194,0.836,1.492,1.082,0.461,0.810,0.766,���k��,5.1,��
2018/11/01,01:30,0.785,1.192,0.835,1.494,1.082,0.460,0.809,0.766,��,5.5,��
2018/11/01,01:40,0.784,1.192,0.835,1.492,1.082,0.462,0.808,0.766,��,6.2,��
2018/11/01,01:50,0.786,1.191,0.836,1.492,1.080,0.461,0.808,0.765,���k��,3.8,��
2018/11/01,02:00,0.788,1.192,0.837,1.493,1.082,0.461,0.808,0.764,���k��,3.0,��
2018/11/01,02:10,0.785,1.194,0.836,1.492,1.083,0.461,0.810,0.764,�k��,2.5,��
2018/11/01,02:20,0.787,1.191,0.835,1.492,1.081,0.460,0.809,0.764,���k��,2.0,��
2018/11/01,02:30,0.785,1.191,0.834,1.487,1.080,0.462,0.809,0.765,���k��,1.9,��
2018/11/01,02:40,0.787,1.190,0.835,1.493,1.083,0.461,0.810,0.767,���k��,2.6,��
2018/11/01,02:50,0.785,1.191,0.835,1.490,1.080,0.461,0.811,0.765,�k��,2.0,��
2018/11/01,03:00,0.786,1.191,0.833,1.491,1.082,0.459,0.808,0.764,�k��,2.0,��
2018/11/01,03:10,0.786,1.192,0.834,1.490,1.083,0.461,0.809,0.766,�k��,1.5,��
2018/11/01,03:20,0.787,1.192,0.835,1.489,1.083,0.461,0.809,0.765,�k�k��,0.8,��
2018/11/01,03:30,0.783,1.192,0.835,1.491,1.082,0.460,0.809,0.765,�k�k��,1.7,��
2018/11/01,03:40,0.786,1.191,0.834,1.490,1.082,0.461,0.808,0.766,�k�k��,2.3,��
2018/11/01,03:50,0.786,1.193,0.834,1.492,1.082,0.460,0.808,0.765,�k��,2.6,��
2018/11/01,04:00,0.786,1.190,0.836,1.489,1.081,0.461,0.809,0.768,�k��,2.8,��
2018/11/01,04:10,0.787,1.190,0.833,1.490,1.080,0.463,0.809,0.765,�k��,2.3,��
2018/11/01,04:20,0.785,1.191,0.834,1.492,1.081,0.460,0.810,0.765,�k,1.7,��
2018/11/01,04:30,0.784,1.191,0.834,1.493,1.081,0.461,0.810,0.765,�k�k��,1.7,��
2018/11/01,04:40,0.785,1.192,0.834,1.493,1.082,0.460,0.809,0.765,�k��,2.8,��
2018/11/01,04:50,0.784,1.188,0.833,1.492,1.079,0.459,0.808,0.766,�k��,3.1,��
2018/11/01,05:00,0.783,1.191,0.833,1.489,1.079,0.460,0.809,0.765,�k��,2.9,��
2018/11/01,05:10,0.783,1.191,0.833,1.490,1.081,0.460,0.808,0.765,���k��,3.1,��
2018/11/01,05:20,0.783,1.191,0.833,1.492,1.078,0.460,0.809,0.766,�k��,3.8,��
2018/11/01,05:30,0.783,1.193,0.835,1.489,1.079,0.459,0.808,0.765,�k��,3.3,��
2018/11/01,05:40,0.785,1.189,0.834,1.491,1.080,0.460,0.811,0.765,���k��,3.8,��
2018/11/01,05:50,0.784,1.191,0.834,1.492,1.081,0.461,0.809,0.765,�k��,3.9,��
2018/11/01,06:00,0.784,1.186,0.833,1.487,1.078,0.459,0.810,0.765,�k��,4.0,��
2018/11/01,06:10,0.783,1.188,0.834,1.489,1.078,0.459,0.811,0.766,�k��,4.3,��
2018/11/01,06:20,0.784,1.190,0.834,1.492,1.080,0.460,0.809,0.764,���k��,3.2,��
2018/11/01,06:30,0.783,1.191,0.832,1.492,1.078,0.460,0.805,0.764,�k��,3.1,��
2018/11/01,06:40,0.783,1.190,0.834,1.490,1.079,0.461,0.807,0.765,���k��,3.2,��
2018/11/01,06:50,0.784,1.187,0.835,1.490,1.079,0.459,0.810,0.764,���k��,4.2,��
2018/11/01,07:00,0.783,1.190,0.832,1.491,1.083,0.461,0.808,0.766,���k��,5.1,��
2018/11/01,07:10,0.784,1.190,0.834,1.490,1.081,0.459,0.808,0.765,���k��,4.5,��
2018/11/01,07:20,0.784,1.192,0.833,1.491,1.081,0.459,0.810,0.765,���k��,3.9,��
2018/11/01,07:30,0.785,1.192,0.833,1.489,1.079,0.460,0.810,0.764,��,3.7,��
2018/11/01,07:40,0.785,1.192,0.833,1.491,1.080,0.462,0.810,0.765,���k��,5.8,��
2018/11/01,07:50,0.785,1.194,0.834,1.489,1.079,0.460,0.809,0.764,���k��,7.3,��
2018/11/01,08:00,0.787,1.192,0.837,1.490,1.081,0.461,0.811,0.765,�k��,7.3,��
2018/11/01,08:10,0.788,1.193,0.832,1.494,1.080,0.460,0.812,0.766,�k��,7.0,��
2018/11/01,08:20,0.786,1.193,0.835,1.492,1.082,0.462,0.809,0.763,�k��,5.1,��
2018/11/01,08:30,0.788,1.191,0.834,1.491,1.081,0.460,0.811,0.767,�k��,3.8,��
2018/11/01,08:40,0.787,1.191,0.834,1.492,1.084,0.463,0.807,0.766,�k��,7.1,��
2018/11/01,08:50,0.788,1.188,0.835,1.492,1.080,0.460,0.809,0.766,�k��,7.1,��
2018/11/01,09:00,0.788,1.190,0.834,1.495,1.079,0.462,0.811,0.766,�k��,6.8,��
2018/11/01,09:10,0.786,1.187,0.838,1.492,1.082,0.461,0.811,0.766,�k��,6.2,��
2018/11/01,09:20,0.789,1.192,0.838,1.496,1.084,0.462,0.809,0.767,�k��,8.4,��
2018/11/01,09:30,0.788,1.188,0.834,1.493,1.084,0.461,0.810,0.766,�k��,9.1,��
2018/11/01,09:40,0.787,1.187,0.835,1.492,1.082,0.461,0.807,0.767,�k��,8.0,��
2018/11/01,09:50,0.791,1.190,0.836,1.495,1.084,0.461,0.810,0.768,�k��,8.1,��
2018/11/01,10:00,0.789,1.188,0.837,1.493,1.082,0.461,0.809,0.768,�k��,8.9,��
2018/11/01,10:10,0.788,1.187,0.837,1.491,1.082,0.458,0.810,0.766,�k��,9.0,��
2018/11/01,10:20,0.787,1.186,0.839,1.495,1.083,0.456,0.809,0.767,�k��,10.3,��
2018/11/01,10:30,0.788,1.187,0.836,1.496,1.080,0.458,0.811,0.768,���k��,8.7,��
2018/11/01,10:40,0.788,1.193,0.836,1.494,1.083,0.458,0.809,0.768,���k��,8.5,��
2018/11/01,10:50,0.786,1.193,0.835,1.496,1.084,0.458,0.810,0.767,�k��,10.9,��
2018/11/01,11:00,0.789,1.194,0.836,1.494,1.086,0.459,0.811,0.767,�k��,8.3,��
2018/11/01,11:10,0.788,1.193,0.836,1.496,1.085,0.459,0.810,0.766,�k��,6.3,��
2018/11/01,11:20,0.789,1.193,0.838,1.496,1.073,0.457,0.811,0.767,�k��,8.6,��
2018/11/01,11:30,0.789,1.192,0.836,1.496,1.082,0.457,0.811,0.767,�k��,9.5,��
2018/11/01,11:40,0.789,1.194,0.837,1.498,1.083,0.458,0.808,0.766,�k��,8.8,��
2018/11/01,11:50,0.789,1.193,0.837,1.495,1.086,0.459,0.812,0.769,�k��,9.4,��
2018/11/01,12:00,0.790,1.192,0.838,1.496,1.085,0.461,0.810,0.769,�k��,8.1,��
2018/11/01,12:10,0.788,1.195,0.839,1.499,1.084,0.460,0.811,0.768,���k��,9.0,��
2018/11/01,12:20,0.792,1.195,0.838,1.501,1.087,0.462,0.811,0.766,���k��,8.5,��
2018/11/01,12:30,0.789,1.195,0.839,1.498,1.086,0.461,0.811,0.765,�k��,7.0,��
2018/11/01,12:40,0.790,1.195,0.838,1.500,1.088,0.461,0.811,0.766,�k��,7.4,��
2018/11/01,12:50,0.789,1.194,0.836,1.501,1.087,0.461,0.813,0.766,�k��,6.4,��
2018/11/01,13:00,0.790,1.191,0.837,1.501,1.087,0.462,0.813,0.764,�k��,5.9,��
2018/11/01,13:10,0.790,1.194,0.836,1.500,1.088,0.460,0.814,0.765,�k��,8.0,��
2018/11/01,13:20,0.790,1.193,0.836,1.501,1.087,0.460,0.812,0.767,�k��,6.9,��
2018/11/01,13:30,0.790,1.193,0.837,1.499,1.088,0.459,0.812,0.766,�k��,7.1,��
2018/11/01,13:40,0.791,1.194,0.836,1.499,1.089,0.458,0.811,0.765,�k��,8.1,��
2018/11/01,13:50,0.791,1.194,0.838,1.499,1.089,0.459,0.811,0.765,�k��,7.5,��
2018/11/01,14:00,0.791,1.192,0.837,1.500,1.087,0.459,0.810,0.766,�k��,6.3,��
2018/11/01,14:10,0.788,1.194,0.837,1.503,1.086,0.461,0.811,0.766,�k��,5.8,��
2018/11/01,14:20,0.788,1.193,0.838,1.501,1.088,0.460,0.809,0.767,�k�k��,5.6,��
2018/11/01,14:30,0.790,1.191,0.837,1.498,1.087,0.460,0.814,0.766,�k��,7.0,��
2018/11/01,14:40,0.792,1.191,0.838,1.500,1.090,0.459,0.811,0.766,�k��,7.1,��
2018/11/01,14:50,0.789,1.194,0.836,1.500,1.087,0.459,0.811,0.764,�k��,7.7,��
2018/11/01,15:00,0.790,1.195,0.836,1.503,1.088,0.460,0.810,0.766,�k��,7.0,��
2018/11/01,15:10,0.791,1.193,0.837,1.500,1.087,0.461,0.812,0.762,���k��,6.2,��
2018/11/01,15:20,0.791,1.198,0.838,1.501,1.088,0.462,0.811,0.763,�k��,5.7,��
2018/11/01,15:30,0.790,1.197,0.836,1.500,1.089,0.461,0.810,0.766,�k��,7.4,��
2018/11/01,15:40,0.788,1.196,0.837,1.499,1.088,0.460,0.811,0.765,�k��,5.7,��
2018/11/01,15:50,0.791,1.198,0.840,1.502,1.087,0.462,0.812,0.766,�k��,6.0,��
2018/11/01,16:00,0.790,1.201,0.836,1.503,1.087,0.460,0.809,0.768,�k��,4.2,��
2018/11/01,16:10,0.790,1.200,0.837,1.501,1.087,0.461,0.810,0.770,�k��,4.9,��
2018/11/01,16:20,0.790,1.199,0.838,1.501,1.084,0.460,0.812,0.767,�k��,5.2,��
2018/11/01,16:30,0.789,1.202,0.837,1.503,1.084,0.461,0.811,0.769,�k��,6.0,��
2018/11/01,16:40,0.789,1.198,0.839,1.502,1.086,0.461,0.812,0.768,�k��,4.4,��
2018/11/01,16:50,0.788,1.201,0.838,1.500,1.085,0.460,0.813,0.766,�k��,6.4,��
2018/11/01,17:00,0.789,1.200,0.839,1.501,1.086,0.461,0.811,0.768,�k��,5.0,��
2018/11/01,17:10,0.790,1.201,0.838,1.500,1.089,0.460,0.811,0.766,�k��,4.5,��
2018/11/01,17:20,0.791,1.200,0.840,1.502,1.090,0.461,0.811,0.766,�k��,4.1,��
2018/11/01,17:30,0.791,1.202,0.840,1.503,1.091,0.460,0.812,0.766,�k��,4.8,��
2018/11/01,17:40,0.791,1.202,0.840,1.502,1.089,0.460,0.812,0.767,�k��,5.5,��
2018/11/01,17:50,0.792,1.198,0.839,1.502,1.088,0.462,0.813,0.767,�k��,6.3,��
2018/11/01,18:00,0.793,1.199,0.840,1.501,1.089,0.460,0.812,0.766,�k��,5.4,��
2018/11/01,18:10,0.790,1.200,0.842,1.501,1.088,0.460,0.811,0.766,�k��,5.3,��
2018/11/01,18:20,0.791,1.202,0.840,1.503,1.088,0.460,0.811,0.767,���k��,5.2,��
2018/11/01,18:30,0.792,1.201,0.840,1.501,1.089,0.460,0.812,0.769,���k��,5.6,��
2018/11/01,18:40,0.791,1.200,0.838,1.502,1.088,0.459,0.811,0.766,�k��,7.0,��
2018/11/01,18:50,0.791,1.199,0.840,1.501,1.089,0.460,0.810,0.765,�k��,6.4,��
2018/11/01,19:00,0.790,1.197,0.838,1.504,1.088,0.461,0.811,0.766,�k��,6.5,��
2018/11/01,19:10,0.792,1.199,0.841,1.502,1.088,0.461,0.810,0.765,�k��,6.5,��
2018/11/01,19:20,0.792,1.202,0.838,1.501,1.089,0.459,0.810,0.765,�k��,5.9,��
2018/11/01,19:30,0.791,1.201,0.837,1.501,1.088,0.459,0.809,0.767,���k��,5.8,��
2018/11/01,19:40,0.790,1.199,0.839,1.501,1.087,0.460,0.810,0.766,���k��,5.4,��
2018/11/01,19:50,0.789,1.200,0.838,1.499,1.089,0.460,0.809,0.768,���k��,5.4,��
2018/11/01,20:00,0.792,1.202,0.840,1.500,1.088,0.460,0.809,0.766,���k��,5.9,��
2018/11/01,20:10,0.789,1.200,0.840,1.502,1.087,0.459,0.811,0.767,���k��,5.2,��
2018/11/01,20:20,0.791,1.202,0.838,1.503,1.088,0.461,0.810,0.765,��,4.7,��
2018/11/01,20:30,0.791,1.199,0.839,1.500,1.088,0.460,0.810,0.765,��,5.0,��
2018/11/01,20:40,0.788,1.198,0.839,1.501,1.088,0.458,0.810,0.767,��,5.1,��
2018/11/01,20:50,0.793,1.197,0.841,1.500,1.088,0.461,0.812,0.765,���k��,5.0,��
2018/11/01,21:00,0.790,1.199,0.839,1.500,1.087,0.459,0.811,0.765,�k��,4.8,��
2018/11/01,21:10,0.789,1.199,0.839,1.501,1.089,0.459,0.808,0.766,���k��,5.1,��
2018/11/01,21:20,0.790,1.198,0.840,1.502,1.085,0.459,0.810,0.765,���k��,5.0,��
2018/11/01,21:30,0.789,1.197,0.838,1.500,1.086,0.461,0.810,0.766,���k��,4.6,��
2018/11/01,21:40,0.788,1.198,0.840,1.501,1.088,0.459,0.809,0.765,��,4.5,��
2018/11/01,21:50,0.789,1.202,0.838,1.500,1.086,0.458,0.810,0.767,���k��,3.3,��
2018/11/01,22:00,0.789,1.198,0.836,1.501,1.088,0.458,0.811,0.766,���k��,4.1,��
2018/11/01,22:10,0.789,1.197,0.838,1.499,1.089,0.460,0.809,0.765,���k��,4.6,��
2018/11/01,22:20,0.789,1.201,0.838,1.500,1.088,0.458,0.809,0.765,���k��,5.0,��
2018/11/01,22:30,0.789,1.197,0.839,1.499,1.087,0.458,0.809,0.764,���k��,5.1,��
2018/11/01,22:40,0.788,1.201,0.838,1.501,1.086,0.458,0.811,0.765,���k��,4.0,��
2018/11/01,22:50,0.790,1.196,0.840,1.501,1.087,0.459,0.810,0.765,��,4.7,��
2018/11/01,23:00,0.789,1.197,0.840,1.502,1.087,0.459,0.808,0.766,��,4.8,��
2018/11/01,23:10,0.787,1.197,0.837,1.499,1.085,0.458,0.810,0.765,��,3.7,��
2018/11/01,23:20,0.790,1.198,0.839,1.500,1.086,0.459,0.810,0.767,��,3.3,��
2018/11/01,23:30,0.789,1.197,0.836,1.498,1.087,0.458,0.810,0.764,��,2.8,��
2018/11/01,23:40,0.788,1.197,0.837,1.502,1.087,0.459,0.811,0.766,���k��,4.2,��
2018/11/01,23:50,0.790,1.197,0.838,1.500,1.086,0.459,0.810,0.766,���k��,4.2,��
